| time (UTC) | temp C | wind direction | speed KPH | gust KPH | rain 1hr cm | rain 24hr cm | rain mn cm | humidity % | barometer mb |
| 20260506163053 | 22 | 154 | 4.8 | 9.7 | 0.00 | 0.00 | 0.00 | 51 | 1005.7 |
| 20260506162026 | 22 | 152 | 3.2 | 11.3 | 0.00 | 0.00 | 0.00 | 50 | 1005.7 |
| 20260506161023 | 22 | 145 | 4.8 | 9.7 | 0.00 | 0.00 | 0.00 | 49 | 1005.7 |
| 20260506160053 | 22 | 178 | 4.8 | 11.3 | 0.00 | 0.00 | 0.00 | 49 | 1005.7 |
| 20260506155044 | 23 | 198 | 4.8 | 12.9 | 0.00 | 0.00 | 0.00 | 49 | 1005.8 |
| 20260506154045 | 23 | 159 | 4.8 | 11.3 | 0.00 | 0.00 | 0.00 | 49 | 1006.1 |
| 20260506153030 | 23 | 163 | 3.2 | 11.3 | 0.00 | 0.00 | 0.00 | 48 | 1006.5 |
| 20260506152029 | 23 | 154 | 1.6 | 12.9 | 0.00 | 0.00 | 0.00 | 47 | 1006.5 |
| 20260506151031 | 23 | 182 | 1.6 | 6.4 | 0.00 | 0.00 | 0.00 | 50 | 1006.5 |
| 20260506150040 | 23 | 201 | 3.2 | 11.3 | 0.00 | 0.00 | 0.00 | 49 | 1006.5 |
| 20260506145044 | 23 | 162 | 4.8 | 9.7 | 0.00 | 0.00 | 0.00 | 50 | 1006.6 |
| 20260506144049 | 25 | 147 | 4.8 | 8.0 | 0.00 | 0.00 | 0.00 | 50 | 1006.6 |
| 20260506143036 | 24 | 136 | 4.8 | 16.1 | 0.00 | 0.00 | 0.00 | 50 | 1007.0 |
| 20260506142039 | 23 | 181 | 4.8 | 16.1 | 0.00 | 0.00 | 0.00 | 52 | 1006.9 |
| 20260506141043 | 23 | 167 | 6.4 | 11.3 | 0.00 | 0.00 | 0.00 | 52 | 1007.0 |
| 20260506140100 | 23 | 193 | 6.4 | 17.7 | 0.00 | 0.00 | 0.00 | 50 | 1007.3 |
| 20260506135042 | 24 | 156 | 4.8 | 11.3 | 0.00 | 0.00 | 0.00 | 51 | 1007.4 |
| 20260506134053 | 23 | 167 | 1.6 | 9.7 | 0.00 | 0.00 | 0.00 | 52 | 1007.3 |
| 20260506133059 | 23 | 199 | 3.2 | 9.7 | 0.00 | 0.00 | 0.00 | 52 | 1007.6 |
| 20260506132035 | 22 | 146 | 4.8 | 9.7 | 0.00 | 0.00 | 0.00 | 53 | 1007.6 |
| 20260506131031 | 22 | 141 | 4.8 | 8.0 | 0.00 | 0.00 | 0.00 | 54 | 1007.6 |
| 20260506130048 | 23 | 168 | 1.6 | 8.0 | 0.00 | 0.00 | 0.00 | 54 | 1008.0 |
| 20260506125044 | 23 | 172 | 3.2 | 12.9 | 0.00 | 0.00 | 0.00 | 52 | 1008.0 |
| 20260506124020 | 23 | 162 | 3.2 | 9.7 | 0.00 | 0.00 | 0.00 | 53 | 1008.0 |
| 20260506123111 | 23 | 170 | 3.2 | 6.4 | 0.00 | 0.00 | 0.00 | 52 | 1008.0 |
| 20260506122020 | 23 | 279 | 0.0 | 1.6 | 0.00 | 0.00 | 0.00 | 51 | 1008.0 |
| 20260506121022 | 23 | 166 | 3.2 | 8.0 | 0.00 | 0.00 | 0.00 | 51 | 1008.0 |
| 20260506120036 | 23 | 100 | 1.6 | 6.4 | 0.00 | 0.00 | 0.00 | 51 | 1008.1 |
| 20260506115041 | 24 | 130 | 1.6 | 8.0 | 0.00 | 0.00 | 0.00 | 49 | 1008.1 |
| 20260506114027 | 24 | 162 | 0.0 | 1.6 | 0.00 | 0.00 | 0.00 | 48 | 1008.1 |
| 20260506113025 | 23 | 188 | 3.2 | 11.3 | 0.00 | 0.00 | 0.00 | 49 | 1008.4 |
| 20260506112057 | 23 | 177 | 1.6 | 4.8 | 0.00 | 0.00 | 0.00 | 50 | 1008.4 |
| 20260506111029 | 23 | 196 | 0.0 | 1.6 | 0.00 | 0.00 | 0.00 | 51 | 1008.4 |
| 20260506110111 | 23 | 237 | 1.6 | 11.3 | 0.00 | 0.00 | 0.00 | 50 | 1008.8 |
| 20260506105040 | 23 | 134 | 1.6 | 3.2 | 0.00 | 0.00 | 0.00 | 51 | 1008.8 |
| 20260506104044 | 23 | 186 | 1.6 | 6.4 | 0.00 | 0.00 | 0.00 | 51 | 1008.8 |
| 20260506103058 | 23 | 240 | 1.6 | 8.0 | 0.00 | 0.00 | 0.00 | 53 | 1008.7 |
| 20260506102048 | 23 | 217 | 1.6 | 8.0 | 0.00 | 0.00 | 0.00 | 52 | 1008.8 |
| 20260506101032 | 23 | 242 | 0.0 | 3.2 | 0.00 | 0.00 | 0.00 | 52 | 1008.7 |
| 20260506100033 | 23 | 254 | 3.2 | 6.4 | 0.00 | 0.00 | 0.00 | 52 | 1009.1 |
| 20260506095023 | 25 | 227 | 1.6 | 4.8 | 0.00 | 0.00 | 0.00 | 50 | 1009.2 |
| 20260506094025 | 24 | 236 | 0.0 | 3.2 | 0.00 | 0.00 | 0.00 | 52 | 1009.1 |
| 20260506093021 | 23 | 235 | 1.6 | 9.7 | 0.00 | 0.00 | 0.00 | 54 | 1009.4 |
| 20260506092119 | 22 | 265 | 1.6 | 8.0 | 0.00 | 0.00 | 0.00 | 56 | 1009.4 |
| 20260506091040 | 22 | 263 | 3.2 | 11.3 | 0.00 | 0.00 | 0.00 | 56 | 1009.4 |
| 20260506090029 | 22 | 237 | 3.2 | 9.7 | 0.00 | 0.00 | 0.00 | 56 | 1009.4 |
| 20260506085053 | 22 | 266 | 4.8 | 9.7 | 0.00 | 0.00 | 0.00 | 57 | 1009.4 |
| 20260506084041 | 22 | 277 | 3.2 | 9.7 | 0.00 | 0.00 | 0.00 | 58 | 1009.4 |
| 20260506083024 | 22 | 231 | 3.2 | 12.9 | 0.00 | 0.00 | 0.00 | 57 | 1009.4 |
| 20260506082028 | 21 | 258 | 3.2 | 8.0 | 0.00 | 0.00 | 0.00 | 57 | 1009.4 |
| 20260506081031 | 20 | 273 | 3.2 | 8.0 | 0.00 | 0.00 | 0.00 | 62 | 1009.0 |
| 20260506073035 | 21 | 224 | 1.6 | 6.4 | 0.00 | 0.00 | 0.00 | 61 | 1009.1 |
| 20260506072034 | 19 | 260 | 1.6 | 4.8 | 0.00 | 0.00 | 0.00 | 65 | 1009.1 |
| 20260506071019 | 21 | 268 | 4.8 | 12.9 | 0.00 | 0.00 | 0.00 | 64 | 1009.5 |
| 20260506062043 | 17 | 264 | 1.6 | 4.8 | 0.00 | 0.00 | 0.00 | 73 | 1009.4 |
| 20260506061038 | 16 | 260 | 1.6 | 4.8 | 0.00 | 0.00 | 0.00 | 74 | 1009.4 |
| 20260506051102 | 15 | 253 | 0.0 | 3.2 | 0.00 | 0.00 | 0.00 | 76 | 1008.7 |
| 20260506045028 | 12 | 153 | 0.0 | 0.0 | 0.00 | 0.00 | 0.00 | 82 | 1008.7 |
| 20260506044029 | 11 | 243 | 0.0 | 1.6 | 0.00 | 0.00 | 0.00 | 85 | 1008.6 |
| 20260506043047 | 11 | 0.0 | 0.0 | 0.00 | 0.00 | 0.00 | 87 | 1008.5 | |
| 20260506042030 | 10 | 0.0 | 0.0 | 0.00 | 0.00 | 0.00 | 87 | 1008.6 | |
| 20260506041102 | 10 | 0.0 | 0.0 | 0.00 | 0.00 | 0.00 | 87 | 1007.9 | |
| 20260506040029 | 10 | 0.0 | 0.0 | 0.00 | 0.00 | 0.00 | 87 | 1007.9 | |
| 20260506035034 | 10 | 258 | 0.0 | 0.0 | 0.00 | 0.00 | 0.00 | 86 | 1007.9 |
| 20260506034039 | 10 | 0.0 | 0.0 | 0.00 | 0.00 | 0.00 | 85 | 1008.0 | |
| 20260506033021 | 10 | 0.0 | 0.0 | 0.00 | 0.00 | 0.00 | 85 | 1008.0 | |
| 20260506032025 | 11 | 0.0 | 0.0 | 0.00 | 0.00 | 0.00 | 84 | 1008.0 | |
| 20260506031020 | 11 | 0.0 | 0.0 | 0.00 | 0.00 | 0.00 | 83 | 1008.0 | |
| 20260506030026 | 11 | 0.0 | 0.0 | 0.00 | 0.00 | 0.00 | 82 | 1007.6 | |
| 20260506025036 | 11 | 0.0 | 0.0 | 0.00 | 0.00 | 0.00 | 81 | 1007.7 | |
| 20260506024026 | 12 | 0.0 | 0.0 | 0.00 | 0.00 | 0.00 | 80 | 1008.1 | |
| 20260506023025 | 12 | 0.0 | 0.0 | 0.00 | 0.00 | 0.00 | 79 | 1007.8 | |
| 20260506022023 | 12 | 0.0 | 0.0 | 0.00 | 0.00 | 0.00 | 79 | 1007.8 | |
| 20260506021047 | 12 | 252 | 0.0 | 3.2 | 0.00 | 0.00 | 0.00 | 79 | 1007.5 |
| 20260506020040 | 12 | 0.0 | 0.0 | 0.00 | 0.00 | 0.00 | 78 | 1007.8 | |
| 20260506015034 | 13 | 0.0 | 0.0 | 0.00 | 0.00 | 0.00 | 77 | 1007.8 | |
| 20260506014043 | 13 | 250 | 0.0 | 0.0 | 0.00 | 0.00 | 0.00 | 76 | 1007.5 |
| 20260506013044 | 13 | 252 | 0.0 | 1.6 | 0.00 | 0.00 | 0.00 | 76 | 1007.5 |
| 20260506012023 | 13 | 274 | 0.0 | 1.6 | 0.00 | 0.00 | 0.00 | 75 | 1007.4 |
| 20260506011020 | 13 | 244 | 0.0 | 6.4 | 0.00 | 0.00 | 0.00 | 75 | 1007.4 |
| 20260506010040 | 13 | 276 | 0.0 | 0.0 | 0.00 | 0.00 | 0.00 | 74 | 1007.1 |
| 20260506005027 | 13 | 0.0 | 0.0 | 0.00 | 0.00 | 0.00 | 73 | 1007.0 | |
| 20260506004028 | 13 | 0.0 | 0.0 | 0.00 | 0.00 | 0.00 | 72 | 1007.0 | |
| 20260506003034 | 13 | 254 | 0.0 | 0.0 | 0.00 | 0.00 | 0.00 | 72 | 1007.0 |
| 20260506002023 | 13 | 303 | 0.0 | 0.0 | 0.00 | 0.00 | 0.00 | 72 | 1007.0 |
| 20260506001034 | 14 | 154 | 0.0 | 0.0 | 0.00 | 0.00 | 0.00 | 71 | 1007.0 |
| 20260506000025 | 14 | 153 | 0.0 | 0.0 | 0.00 | 0.00 | 0.00 | 70 | 1006.7 |
| 20260505235026 | 15 | 170 | 1.6 | 9.7 | 0.00 | 0.00 | 0.00 | 69 | 1006.8 |
| 20260505234031 | 15 | 162 | 1.6 | 4.8 | 0.00 | 0.00 | 0.00 | 69 | 1006.8 |
| 20260505233028 | 15 | 166 | 0.0 | 4.8 | 0.00 | 0.00 | 0.00 | 68 | 1006.8 |
| 20260505232034 | 15 | 190 | 0.0 | 4.8 | 0.00 | 0.00 | 0.00 | 68 | 1006.8 |
| 20260505231028 | 15 | 205 | 0.0 | 4.8 | 0.00 | 0.00 | 0.00 | 67 | 1007.1 |
| 20260505230022 | 15 | 140 | 0.0 | 4.8 | 0.00 | 0.00 | 0.00 | 68 | 1006.8 |
| 20260505225031 | 15 | 168 | 0.0 | 0.0 | 0.00 | 0.00 | 0.00 | 68 | 1006.7 |
| 20260505224110 | 15 | 144 | 0.0 | 4.8 | 0.00 | 0.00 | 0.00 | 68 | 1007.0 |
| 20260505223020 | 15 | 143 | 0.0 | 1.6 | 0.00 | 0.00 | 0.00 | 67 | 1007.0 |
| 20260505222022 | 15 | 117 | 0.0 | 3.2 | 0.00 | 0.00 | 0.00 | 68 | 1007.0 |
| 20260505221021 | 15 | 336 | 0.0 | 0.0 | 0.00 | 0.00 | 0.00 | 67 | 1007.0 |
| 20260505220031 | 15 | 219 | 0.0 | 0.0 | 0.00 | 0.00 | 0.00 | 66 | 1007.0 |
| 20260505215024 | 15 | 2 | 0.0 | 3.2 | 0.00 | 0.00 | 0.00 | 66 | 1007.0 |
| 20260505214022 | 15 | 168 | 0.0 | 3.2 | 0.00 | 0.00 | 0.00 | 66 | 1007.0 |
| 20260505213022 | 15 | 302 | 0.0 | 4.8 | 0.00 | 0.00 | 0.00 | 67 | 1007.0 |
| 20260505212027 | 15 | 287 | 0.0 | 0.0 | 0.00 | 0.00 | 0.00 | 65 | 1006.9 |
| 20260505211021 | 15 | 244 | 0.0 | 3.2 | 0.00 | 0.00 | 0.00 | 64 | 1007.0 |
| 20260505210125 | 16 | 161 | 0.0 | 0.0 | 0.00 | 0.00 | 0.00 | 62 | 1007.0 |
| 20260505205028 | 16 | 198 | 0.0 | 1.6 | 0.00 | 0.00 | 0.00 | 62 | 1007.0 |
| 20260505204052 | 16 | 213 | 0.0 | 4.8 | 0.00 | 0.00 | 0.00 | 60 | 1007.0 |
| 20260505203022 | 16 | 298 | 0.0 | 1.6 | 0.00 | 0.00 | 0.00 | 60 | 1007.0 |
| 20260505202027 | 16 | 256 | 0.0 | 3.2 | 0.00 | 0.00 | 0.00 | 59 | 1006.9 |
| 20260505201048 | 16 | 166 | 0.0 | 0.0 | 0.00 | 0.00 | 0.00 | 58 | 1006.9 |
| 20260505200052 | 17 | 178 | 0.0 | 4.8 | 0.00 | 0.00 | 0.00 | 56 | 1007.3 |
| 20260505195045 | 17 | 160 | 1.6 | 11.3 | 0.00 | 0.00 | 0.00 | 54 | 1007.3 |
| 20260505194021 | 17 | 129 | 1.6 | 4.8 | 0.00 | 0.00 | 0.00 | 54 | 1007.0 |
| 20260505193022 | 17 | 165 | 0.0 | 4.8 | 0.00 | 0.00 | 0.00 | 54 | 1007.0 |
| 20260505192022 | 17 | 102 | 1.6 | 6.4 | 0.00 | 0.00 | 0.00 | 53 | 1006.9 |
| 20260505191023 | 18 | 160 | 1.6 | 6.4 | 0.00 | 0.00 | 0.00 | 52 | 1006.9 |
| 20260505190023 | 18 | 130 | 3.2 | 6.4 | 0.00 | 0.00 | 0.00 | 52 | 1007.0 |
| 20260505185028 | 18 | 186 | 3.2 | 8.0 | 0.00 | 0.00 | 0.00 | 51 | 1006.9 |
| 20260505184047 | 19 | 168 | 4.8 | 11.3 | 0.00 | 0.00 | 0.00 | 50 | 1006.9 |
| 20260505183113 | 19 | 176 | 3.2 | 11.3 | 0.00 | 0.00 | 0.00 | 50 | 1006.9 |
| 20260505182132 | 20 | 181 | 3.2 | 9.7 | 0.00 | 0.00 | 0.00 | 49 | 1006.7 |
| 20260505181022 | 20 | 189 | 4.8 | 9.7 | 0.00 | 0.00 | 0.00 | 48 | 1006.4 |
| 20260505180031 | 20 | 169 | 4.8 | 9.7 | 0.00 | 0.00 | 0.00 | 48 | 1006.4 |
| 20260505175027 | 21 | 166 | 3.2 | 9.7 | 0.00 | 0.00 | 0.00 | 47 | 1006.2 |
| 20260505174029 | 21 | 177 | 1.6 | 6.4 | 0.00 | 0.00 | 0.00 | 46 | 1006.3 |
| 20260505173030 | 22 | 182 | 4.8 | 17.7 | 0.00 | 0.00 | 0.00 | 45 | 1006.3 |
| 20260505172021 | 22 | 184 | 1.6 | 4.8 | 0.00 | 0.00 | 0.00 | 44 | 1006.2 |
| 20260505171059 | 23 | 173 | 1.6 | 6.4 | 0.00 | 0.00 | 0.00 | 43 | 1005.6 |
| 20260505170047 | 23 | 212 | 3.2 | 11.3 | 0.00 | 0.00 | 0.00 | 42 | 1006.0 |
| 20260505165101 | 23 | 167 | 4.8 | 12.9 | 0.00 | 0.00 | 0.00 | 41 | 1005.9 |
| 20260505164028 | 24 | 202 | 1.6 | 8.0 | 0.00 | 0.00 | 0.00 | 40 | 1006.0 |